THOR ABLESTAR R/B, 953

Orbit data source: Space-Track

THOR ABLESTAR R/B, 953 is space debris in LEO originally from a launch on Sun, 13 Dec 1964 UTC launched from the Air Force Western Test Range (AFWTR). Debris objects in space refer to the collection of defunct objects orbiting the Earth. Examples of debris include non-operational satellites, rocket bodies, and fragments generated from explosions, collisions, or faulty payload assembly.

Loading next visibility...
Identifier
953, 1964-083A
Orbit
LEO
Country
Flag of USUS
Related business
Manufacturer
Aerojet
Mission
Spacecraft
Bus & Motor
ABLESTAR, Unknown motor
Mass
~600 kg wet, 600 kg dry
Launch date (UTC)
1964-12-13 (61 years ago)
Launch vehicle
Unknown
Launch site
Air Force Western Test Range (AFWTR)
Object type
Payload
Rocket body
Debris
Shape & HBR
Unknown
Radar Cross Section
Large (>1 m²)

Expand to show TLE details & history
Last TLE update: 11 hours ago

TLE from 11 hours ago
0 THOR ABLESTAR R/B
1   953U 64083A   26127.65451002  .00000047  00000-0  51110-4 0  9992
2   953  90.0367 192.9749 0031278 190.3257 322.5147 13.58835533 43075
Epoch: 2026-05-07T15:42Z
TLE epoch observation values (Epoch: 2026-05-07T15:42:29.665Z)
Latitude
27.41554°
Longitude
-88.12731°
Altitude
1,024.961 km
Speed
7.351 km/s
True Right ascension
00h 51m 58s
True Declination
27° 16' 49"
Sunlit
Object was in daylight at epoch
Visualization orbit readout
Latitude
Unknown
Longitude
Unknown
Altitude
Unknown
Speed
Unknown
Apparent Right ascension
Unknown
Apparent Declination
Unknown
Sunlit
N/A
Visualization observer readout
Local Sidereal Time
10:45:14
Azimuth
Unknown
Elevation
Unknown
Doppler factor
Unknown
Orbital elements
Apogee altitude
1,060.157 km
Perigee altitude
1,013.771 km
Semi-major axis
7,415.101 km
Eccentricity
0.00313
Inclination
90.0367°
RAAN
192.9749°
Arg. of periapsis
190.3257°
True anomaly
322.2959°
Mean anomaly
322.5147°
Eccentric anomaly
322.40537°
Mean motion
3.39913 °/min
Orbital period
105.91 mins
BSTAR
0.00005111
Loading maneuver chart data...
Computing Atmospheric mass density...

Documentation

Showing up to 5 results
|